[[{"header":{"parameterUnit":"m.s-1","parameterCategory":1,"la1":30.2991,"la2":30.254,"lo1":-89.0895,"lo2":-89.0444,"dy":0.0017,"dx":0.0017,"nx":28,"ny":28,"refTime":"2024-06-23T21:00:00:Z","depth":0,"parameterNumber":2,"parameterNumberName":"U-component_of_WINDS"},"data":[0,0,0,0,0,0,0,0,0,0,0,0,0,0,0,0,0,0,0,0,0,0,0,0,0,0,0,0,0,0,0,0,0,0,0,0,0,0,0,0,0,0,0,0,0,0,0,0,0,0,0,0,0,0,0,0,0,0,3.0437,3.0438,0,3.048,3.0481,3.0481,3.0437,3.0435,3.0433,3.0432,3.0481,3.0484,3.0487,0,0,0,0,0,0,0,0,0,0,0,0,0,3.0321,3.0324,3.0437,3.0438,3.0438,3.048,3.0481,3.0482,3.0437,3.0435,3.0433,3.0431,3.048,3.0483,3.0487,0,0,0,0,0,0,0,0,0,0,0,0,0,3.0369,3.0325,3.0437,3.0421,3.042,3.048,3.0481,3.0482,3.0438,3.0435,3.0432,3.043,3.0479,3.0483,3.0487,3.0567,0,0,3.0501,3.0503,0,0,0,0,0,0,0,0,3.0366,3.0373,3.0423,3.0422,3.0421,3.045,3.0458,3.0511,3.0438,3.0431,3.0432,3.0429,3.0473,3.0478,3.0492,3.0569,3.0571,3.0501,3.0504,3.0506,3.0507,0,0,0,0,0,0,0,3.0363,3.0371,3.0454,3.0424,3.0423,3.0413,3.0417,3.0468,3.0467,3.0431,3.0428,3.0434,3.0472,3.0488,3.0493,3.0572,3.0501,3.0505,3.0508,3.0509,3.072,3.0722,0,0,0,0,0,0,3.0361,3.0369,3.0453,3.0456,3.0387,3.0418,3.0422,3.0444,3.0466,3.0466,3.0436,3.0432,3.0481,3.0488,3.0494,3.059,3.0506,3.051,3.0512,3.0717,3.072,3.0724,0,0,0,0,0,0,3.0359,3.0369,3.0451,3.0411,3.0421,3.0422,3.0447,3.0446,3.0461,3.0469,3.0469,3.0452,3.048,3.0488,3.0549,3.0591,3.0512,3.0516,3.0713,3.0718,3.0722,3.0782,0,0,0,0,0,0,3.0355,3.0368,3.0397,3.0412,3.0423,3.0504,3.045,3.0449,3.0469,3.0463,3.0484,3.0485,3.0478,3.0543,3.0554,3.0596,3.0519,3.071,3.0715,3.0721,3.0776,3.0788,3.0798,0,0,0,0,0,3.0351,3.0413,3.0399,3.0409,3.0459,3.0507,3.0513,3.0503,3.0472,3.0502,3.0507,3.0484,3.0585,3.055,3.0561,3.0606,3.0707,3.0714,3.072,3.0772,3.0786,3.0798,0,0,0,0,0,0,3.0404,3.0415,3.0399,3.0467,3.0486,3.0499,3.0536,3.0518,3.0547,3.0541,3.0529,3.0534,3.0599,3.0609,3.0569,3.0685,3.0641,3.0651,3.0676,3.069,3.07,3.0697,3.0523,0,0,0,0,0,3.0423,3.0459,3.0467,3.0526,3.0537,3.0535,3.0555,3.0546,3.0566,3.0574,3.0583,3.0605,3.0642,3.0666,3.07,3.0778,3.0783,3.0814,3.0825,3.0834,3.0842,3.0885,3.09,3.0745,3.0745,3.0745,0,0,3.0463,3.0474,3.0497,3.0537,3.0551,3.059,3.0542,3.0585,3.0615,3.0581,3.0639,3.0647,3.0671,3.0741,3.0772,3.0751,3.0886,3.0842,3.0849,3.0853,3.0894,3.0908,3.0921,3.075,3.0749,3.0748,0,0,3.0557,3.0568,3.0619,3.0634,3.0655,3.0654,3.0666,3.0682,3.0686,3.0744,3.072,3.0756,3.0819,3.0837,3.0855,3.0958,3.0938,3.0969,3.1026,3.1068,3.108,3.1091,3.1129,3.1143,3.0978,3.0978,3.0978,0,3.0605,3.0661,3.0648,3.0693,3.0712,3.0683,3.0736,3.0751,3.0783,3.0798,3.0773,3.0852,3.0866,3.0941,3.0966,3.0981,3.0996,3.0967,3.1079,3.109,3.11,3.1136,3.115,3.0981,3.0981,3.0981,3.098,0,3.072,3.076,3.0799,3.083,3.0853,3.0902,3.0898,3.0924,3.0913,3.0915,3.0976,3.0992,3.1029,3.1046,3.1036,3.112,3.1106,3.1081,3.1037,3.1119,3.1152,3.1166,3.0987,3.0985,3.0984,3.0983,0,0,3.0847,3.087,3.0885,3.0899,3.0921,3.0953,3.1001,3.1037,3.106,3.1083,3.1125,3.118,3.1157,3.1177,3.1169,3.1206,3.1288,3.1176,3.1176,3.1197,3.1384,3.1403,3.1419,3.1275,3.1278,3.128,3.1382,0,3.0942,3.1025,3.1015,3.1095,3.1133,3.1106,3.1149,3.1168,3.1172,3.1206,3.1211,3.125,3.1216,3.1228,3.1263,3.1271,3.1326,3.1263,3.1316,3.1318,3.1311,3.1437,3.1457,3.1553,3.1395,3.1397,3.1399,0,3.1064,3.1091,3.1174,3.1192,3.1207,3.1246,3.1278,3.131,3.1333,3.1333,3.1356,3.1342,3.1394,3.1348,3.142,3.1378,3.1399,3.1406,3.141,3.1415,3.1364,3.1446,3.1583,3.1598,3.1419,3.1418,3.1416,0,3.1149,3.1207,3.1265,3.1277,3.1299,3.1327,3.1338,3.1357,3.1379,3.1409,3.1424,3.1459,3.1479,3.1507,3.1504,3.1471,3.1578,3.1532,3.1581,3.1581,3.1605,3.1604,3.1748,3.1618,3.1618,3.1617,3.1617,0,3.1257,3.1309,3.1303,3.1339,3.1398,3.1387,3.1446,3.1454,3.1472,3.151,3.1489,3.1526,3.1519,3.1556,3.1555,3.1615,3.1624,3.1627,3.1626,3.1629,3.1629,3.1644,3.1637,3.1621,3.162,3.162,3.1619,0,3.1363,3.136,3.1422,3.1437,3.1443,3.1485,3.15,3.1534,3.1537,3.1585,3.1596,3.1601,3.1644,3.1643,3.1693,3.1692,3.1766,3.1757,3.1758,3.1757,3.1806,3.1802,3.1965,3.1987,3.1842,3.1844,3.1845,0,3.1431,3.1471,3.1491,3.1514,3.1527,3.1565,3.1587,3.1579,3.1604,3.1633,3.1665,3.1706,3.1738,3.1808,3.1817,3.1855,3.1848,3.1902,3.1854,3.1856,3.185,3.1848,3.1853,3.1912,3.1914,3.1915,3.1916,0,3.1555,3.1552,3.1585,3.1618,3.1645,3.1671,3.1695,3.1716,3.1711,3.174,3.1783,3.1808,3.1858,3.19,3.1937,3.195,3.1933,3.1932,3.1945,3.1949,3.1948,3.195,3.1785,3.1928,3.1927,3.1926,3.1925,3.1925,3.1645,3.1679,3.1699,3.1737,3.1754,3.1777,3.1811,3.1817,3.1852,3.1892,3.1885,3.1934,3.1957,3.2005,3.2021,3.206,3.2041,3.2061,3.2066,3.2071,3.2077,3.1942,3.2067,3.2067,3.2066,3.2066,3.2066,0,3.1768,3.1779,3.1814,3.1848,3.1878,3.1858,3.1884,3.1912,3.1954,3.1976,3.2008,3.2059,3.2099,3.2112,3.2151,3.218,3.2174,3.2191,3.2189,3.2193,3.2091,3.2076,3.2196,3.2196,3.2196,3.2196,3.2196,3.2196,3.1835,3.1893,3.1893,3.196,3.1972,3.2018,3.2035,3.2057,3.2075,3.2131,3.2164,3.2172,3.2191,3.2232,3.2269,3.2272,3.2288,3.2308,3.2308,3.2213,3.22,3.2188,3.2173,3.2312,3.2312,3.2407,3.2408,3.2409]},{"header":{"parameterUnit":"m.s-1","parameterCategory":1,"la1":30.2991,"la2":30.254,"lo1":-89.0895,"lo2":-89.0444,"dy":0.0017,"dx":0.0017,"nx":28,"ny":28,"refTime":"2024-06-23T21:00:00:Z","depth":0,"parameterNumber":3,"parameterNumberName":"V-component_of_WINDS"},"data":[0,0,0,0,0,0,0,0,0,0,0,0,0,0,0,0,0,0,0,0,0,0,0,0,0,0,0,0,0,0,0,0,0,0,0,0,0,0,0,0,0,0,0,0,0,0,0,0,0,0,0,0,0,0,0,0,0,0,0.4341,0.4342,0,0.4366,0.4366,0.4366,0.4359,0.4359,0.4358,0.4358,0.4382,0.4384,0.4385,0,0,0,0,0,0,0,0,0,0,0,0,0,0.4288,0.4289,0.4341,0.4342,0.4342,0.4365,0.4366,0.4366,0.4359,0.4359,0.4358,0.4357,0.4382,0.4383,0.4385,0,0,0,0,0,0,0,0,0,0,0,0,0,0.4311,0.4289,0.4341,0.4341,0.4342,0.4365,0.4366,0.4366,0.4359,0.4359,0.4358,0.4357,0.4382,0.4383,0.4385,0.441,0,0,0.439,0.4391,0,0,0,0,0,0,0,0,0.431,0.4313,0.4341,0.4341,0.4342,0.4359,0.4356,0.4381,0.436,0.4353,0.4358,0.4357,0.4375,0.4377,0.4383,0.4411,0.4412,0.439,0.4391,0.4392,0.4392,0,0,0,0,0,0,0,0.4308,0.4312,0.4351,0.4341,0.4342,0.434,0.4342,0.4361,0.4368,0.4353,0.4353,0.4356,0.4375,0.4382,0.4384,0.4413,0.439,0.4392,0.4393,0.4393,0.4459,0.446,0,0,0,0,0,0,0.4307,0.4311,0.435,0.4352,0.4324,0.4341,0.4344,0.4354,0.4368,0.4369,0.4356,0.4355,0.4379,0.4382,0.4385,0.4413,0.4392,0.4394,0.4394,0.4459,0.4459,0.446,0,0,0,0,0,0,0.4305,0.431,0.4349,0.4331,0.4336,0.4343,0.4354,0.4355,0.4361,0.437,0.4371,0.4362,0.4379,0.4382,0.4403,0.4414,0.4394,0.4396,0.4458,0.4459,0.446,0.4472,0,0,0,0,0,0,0.4304,0.431,0.432,0.4331,0.4337,0.4368,0.4355,0.4356,0.4364,0.4363,0.4375,0.4377,0.4379,0.4401,0.4405,0.4416,0.4397,0.4457,0.4458,0.446,0.447,0.4473,0.4475,0,0,0,0,0,0.4302,0.4323,0.4321,0.4326,0.435,0.4369,0.4372,0.4373,0.4365,0.4375,0.438,0.4376,0.4412,0.4403,0.4408,0.4419,0.4456,0.4458,0.4459,0.4469,0.4472,0.4475,0,0,0,0,0,0,0.4314,0.4325,0.4322,0.4348,0.4357,0.4367,0.438,0.4377,0.4389,0.4388,0.4389,0.4392,0.4413,0.4418,0.4408,0.4443,0.4433,0.4436,0.4439,0.4442,0.4444,0.4442,0.4399,0,0,0,0,0,0.4319,0.4334,0.4343,0.4364,0.4369,0.4374,0.4382,0.4382,0.4392,0.4396,0.4403,0.4412,0.4425,0.4434,0.4447,0.4471,0.4472,0.4481,0.4484,0.4486,0.4488,0.4498,0.4502,0.4466,0.4466,0.4466,0,0,0.4331,0.4339,0.4348,0.4367,0.4374,0.4388,0.4377,0.4393,0.4403,0.4398,0.4418,0.4423,0.4433,0.4455,0.4465,0.446,0.4498,0.4488,0.4489,0.449,0.4501,0.4504,0.4507,0.4467,0.4467,0.4467,0,0,0.436,0.4368,0.4385,0.4392,0.4403,0.4405,0.4409,0.442,0.4422,0.4442,0.4438,0.4449,0.4473,0.4479,0.4486,0.4513,0.451,0.4518,0.4531,0.4541,0.4544,0.4546,0.4554,0.4558,0.452,0.452,0.452,0,0.4373,0.4394,0.4395,0.441,0.4417,0.4413,0.443,0.4436,0.4451,0.4456,0.445,0.4477,0.4484,0.4506,0.4513,0.4519,0.4522,0.4516,0.4543,0.4546,0.4548,0.4556,0.4559,0.4521,0.452,0.452,0.452,0,0.4409,0.4424,0.4436,0.4449,0.4458,0.4474,0.4476,0.4485,0.4483,0.4486,0.4504,0.4512,0.4525,0.4531,0.453,0.4552,0.4548,0.4543,0.4533,0.4552,0.456,0.4563,0.4522,0.4521,0.4521,0.4521,0,0,0.4447,0.4458,0.4463,0.4467,0.4477,0.4488,0.4503,0.4515,0.4522,0.4531,0.4543,0.4561,0.4555,0.4563,0.4563,0.4572,0.459,0.4565,0.4565,0.4568,0.4613,0.4616,0.4619,0.4588,0.4589,0.4589,0.4611,0,0.4475,0.4501,0.4501,0.4525,0.4537,0.4531,0.4544,0.4551,0.4553,0.4563,0.4566,0.4578,0.457,0.4574,0.4583,0.4586,0.4599,0.4585,0.4598,0.4598,0.4594,0.4623,0.4628,0.4648,0.4614,0.4615,0.4615,0,0.4512,0.4521,0.4546,0.4551,0.4556,0.4568,0.4577,0.4588,0.4594,0.4595,0.4602,0.46,0.4613,0.4603,0.4621,0.4611,0.4616,0.4618,0.4619,0.4619,0.4607,0.4624,0.4655,0.4658,0.462,0.4619,0.4619,0,0.4535,0.4553,0.457,0.4574,0.4582,0.459,0.4593,0.4599,0.4606,0.4614,0.4617,0.4627,0.4633,0.464,0.464,0.4632,0.4657,0.4647,0.4657,0.4657,0.4663,0.4662,0.4694,0.4667,0.4667,0.4667,0.4667,0,0.4566,0.4581,0.458,0.459,0.4606,0.4605,0.462,0.4623,0.4628,0.4638,0.4634,0.4643,0.4642,0.4651,0.4651,0.4665,0.4668,0.4668,0.4667,0.4668,0.4667,0.4671,0.4669,0.4668,0.4668,0.4668,0.4668,0,0.4594,0.4595,0.4612,0.4617,0.4618,0.463,0.4633,0.4642,0.4643,0.4655,0.4658,0.466,0.467,0.467,0.4682,0.4682,0.4698,0.4697,0.4695,0.4695,0.4704,0.4703,0.4739,0.4743,0.4715,0.4715,0.4715,0,0.4614,0.4625,0.463,0.4636,0.4639,0.4649,0.4655,0.4653,0.4659,0.4666,0.4674,0.4683,0.4691,0.4707,0.4709,0.4717,0.4715,0.4727,0.4716,0.4715,0.4714,0.4713,0.4713,0.4729,0.4729,0.473,0.473,0,0.4647,0.4646,0.4654,0.4662,0.4669,0.4675,0.4681,0.4686,0.4685,0.4692,0.4701,0.4707,0.4718,0.4726,0.4734,0.4737,0.4733,0.4733,0.4735,0.4736,0.4734,0.4733,0.47,0.4732,0.4732,0.4732,0.4732,0.4732,0.4671,0.4679,0.4683,0.4692,0.4696,0.4701,0.4709,0.471,0.4718,0.4726,0.4724,0.4735,0.4739,0.4748,0.4752,0.4759,0.4755,0.4759,0.476,0.4761,0.4761,0.4733,0.4761,0.4761,0.4761,0.476,0.476,0,0.4702,0.4704,0.4712,0.4719,0.4726,0.4721,0.4726,0.4732,0.4741,0.4745,0.4751,0.4761,0.4769,0.4771,0.4778,0.4783,0.4781,0.4785,0.4785,0.4785,0.4765,0.4762,0.4787,0.4787,0.4787,0.4787,0.4787,0.4787,0.472,0.4733,0.4732,0.4747,0.4748,0.4758,0.4761,0.4765,0.4768,0.4779,0.4785,0.4786,0.4788,0.4795,0.4802,0.4802,0.4804,0.4808,0.4808,0.4789,0.4787,0.4784,0.4781,0.4809,0.4809,0.4826,0.4827,0.4827]}]]